Weather History for Drummond Island, MI

Change the Weather History Date:

Friday, December 7, 2012

  Actual Average (KCIU) Record (KCIU)
Temperature  
Mean Temperature 34 °F -  
Max Temperature 39 °F 30 °F 42 °F (1988)
Min Temperature 30 °F 13 °F -6 °F (1991)
Degree Days  
Heating Degree Days 30    
Moisture  
Dew Point 30 °F    
Average Humidity 79    
Maximum Humidity 90    
Minimum Humidity 68    
Precipitation  
Precipitation 0.00 in - - ()
Sea Level Pressure  
Sea Level Pressure 29.91 in    
Wind  
Wind Speed 6 mph (WNW)    
Max Wind Speed 10 mph    
Max Gust Speed 16 mph    
Visibility 10 miles    
Events      
Averages and records for this station are not official NWS values.
T = Trace of Precipitation, MM = Missing Value Source: NWS Daily Summary

Daily Weather History Graph

Daily Weather History Graph

Search for Another Location

Airport:

Trip Planner

Search our weather history database for the weather conditions in past years. The results will help you decide how hot, cold, wet, or windy it might be!

Date:

Astronomy

Dec. 07, 2012 Rise Set
Actual Time 8:03 AM EST 4:49 PM EST
Civil Twilight 7:29 AM EST 5:24 PM EST
Nautical Twilight 6:51 AM EST 6:01 PM EST
Astronomical Twilight 6:15 AM EST 6:37 PM EST
Moon 1:03 AM EST (12/7) 1:02 PM EST (12/7)
Length of Visible Light 9h 54m
Length of Day
8h 46m
Last Quarter, 39% of the Moon is Illuminated
Dec 7
Last Quarter
Dec 13
New
Dec 20
First Quarter
Dec 28
Full
Jan 4
Last Quarter

Hourly Weather History & Observations

Time (EST) Temp. Windchill Dew Point Humidity Pressure Visibility Wind Dir Wind Speed Gust Speed Precip Events Conditions
12:17 AM 37.8 °F 31.8 °F 34.9 °F 89% 29.81 in 7.0 mi SW 8.1 mph - N/A   Overcast
12:36 AM 37.9 °F 30.9 °F 34.9 °F 89% 29.80 in 10.0 mi SW 10.4 mph - N/A   Overcast
12:57 AM 38.3 °F 31.9 °F 34.7 °F 87% 29.80 in 10.0 mi SSW 9.2 mph 16.1 mph N/A   Overcast
1:16 AM 38.3 °F 32.5 °F 34.7 °F 87% 29.80 in 10.0 mi SSW 8.1 mph - N/A   Overcast
1:36 AM 38.3 °F 33.2 °F 34.7 °F 87% 29.80 in 10.0 mi SSW 6.9 mph - N/A   Overcast
1:57 AM 38.3 °F 33.2 °F 34.9 °F 87% 29.80 in 10.0 mi SSW 6.9 mph - N/A   Overcast
2:16 AM 38.3 °F 34.8 °F 35.2 °F 89% 29.81 in 10.0 mi SW 4.6 mph - N/A   Overcast
2:36 AM 38.5 °F 36.1 °F 35.6 °F 89% 29.82 in 10.0 mi SW 3.5 mph - N/A   Overcast
2:57 AM 38.8 °F 35.4 °F 36.0 °F 89% 29.82 in 10.0 mi WSW 4.6 mph - N/A   Overcast
3:16 AM 39.2 °F - 36.5 °F 90% 29.82 in 10.0 mi Calm Calm - N/A   Overcast
3:36 AM 39.2 °F 37.0 °F 36.1 °F 89% 29.83 in 10.0 mi WSW 3.5 mph - N/A   Overcast
3:57 AM 39.2 °F - 35.8 °F 88% 29.83 in 10.0 mi Calm Calm - N/A   Overcast
4:16 AM 39.2 °F 37.0 °F 35.1 °F 85% 29.83 in 10.0 mi WNW 3.5 mph - N/A   Overcast
4:37 AM 38.8 °F 35.4 °F 34.7 °F 85% 29.83 in 10.0 mi WNW 4.6 mph - N/A   Overcast
4:57 AM 38.3 °F 34.8 °F 34.7 °F 87% 29.84 in 10.0 mi WNW 4.6 mph - N/A   Overcast
5:16 AM 37.9 °F - 34.7 °F 88% 29.84 in 10.0 mi Calm Calm - N/A   Overcast
5:37 AM 37.4 °F 33.8 °F 34.7 °F 90% 29.84 in 10.0 mi West 4.6 mph - N/A   Overcast
5:56 AM 37.4 °F 33.8 °F 34.3 °F 89% 29.86 in 10.0 mi West 4.6 mph - N/A   Overcast
6:16 AM 37.0 °F 33.3 °F 34.0 °F 89% 29.86 in 10.0 mi NW 4.6 mph - N/A   Overcast
6:37 AM 36.7 °F 34.1 °F 33.8 °F 89% 29.86 in 10.0 mi NW 3.5 mph - N/A   Overcast
6:56 AM 36.5 °F 32.7 °F 33.3 °F 88% 29.87 in 10.0 mi WNW 4.6 mph - N/A   Overcast
7:16 AM 36.5 °F 32.7 °F 32.0 °F 84% 29.88 in 10.0 mi WNW 4.6 mph - N/A   Overcast
7:37 AM 36.1 °F 30.6 °F 31.5 °F 83% 29.88 in 10.0 mi WNW 6.9 mph - N/A   Overcast
7:56 AM 35.8 °F 31.9 °F 30.9 °F 82% 29.89 in 10.0 mi NW 4.6 mph - N/A   Overcast
8:17 AM 35.6 °F 31.7 °F 30.2 °F 81% 29.89 in 10.0 mi WNW 4.6 mph - N/A   Overcast
8:36 AM 35.6 °F 29.2 °F 30.0 °F 80% 29.90 in 10.0 mi WNW 8.1 mph - N/A   Scattered Clouds
8:56 AM 35.6 °F 29.2 °F 30.2 °F 81% 29.91 in 10.0 mi WNW 8.1 mph - N/A   Clear
9:17 AM 35.6 °F 31.7 °F 30.2 °F 81% 29.92 in 10.0 mi WNW 4.6 mph - N/A   Mostly Cloudy
9:36 AM 35.8 °F 31.9 °F 29.7 °F 78% 29.93 in 10.0 mi West 4.6 mph - N/A   Overcast
9:56 AM 36.0 °F 31.1 °F 29.8 °F 78% 29.93 in 10.0 mi NW 5.8 mph - N/A   Mostly Cloudy
10:17 AM 36.0 °F 32.1 °F 30.2 °F 80% 29.93 in 10.0 mi WNW 4.6 mph - N/A   Scattered Clouds
10:36 AM 36.5 °F 32.7 °F 30.2 °F 78% 29.93 in 10.0 mi WNW 4.6 mph - N/A   Clear
10:56 AM 36.7 °F 32.9 °F 30.6 °F 78% 29.93 in 10.0 mi WNW 4.6 mph - N/A   Clear
11:16 AM 36.9 °F 31.4 °F 30.6 °F 78% 29.93 in 10.0 mi West 6.9 mph - N/A   Clear
11:36 AM 37.8 °F 32.5 °F 30.9 °F 76% 29.93 in 10.0 mi WNW 6.9 mph - N/A   Clear
11:57 AM 37.8 °F 34.2 °F 31.3 °F 77% 29.93 in 10.0 mi WNW 4.6 mph - N/A   Clear
12:16 PM 37.8 °F 32.5 °F 30.6 °F 75% 29.93 in 10.0 mi WNW 6.9 mph - N/A   Clear
12:36 PM 38.3 °F 32.5 °F 30.7 °F 74% 29.93 in 10.0 mi WNW 8.1 mph - N/A   Clear
12:57 PM 37.6 °F 31.6 °F 30.0 °F 74% 29.93 in 10.0 mi NW 8.1 mph - N/A   Clear
1:16 PM 37.4 °F 31.4 °F 29.5 °F 73% 29.93 in 10.0 mi WNW 8.1 mph - N/A   Clear
1:37 PM 37.4 °F 31.4 °F 28.9 °F 71% 29.93 in 10.0 mi NW 8.1 mph 16.1 mph N/A   Scattered Clouds
1:56 PM 36.9 °F 30.7 °F 28.4 °F 71% 29.93 in 10.0 mi WNW 8.1 mph - N/A   Mostly Cloudy
2:17 PM 36.9 °F 30.1 °F 27.5 °F 69% 29.93 in 10.0 mi NW 9.2 mph - N/A   Mostly Cloudy
2:37 PM 37.4 °F 31.4 °F 27.7 °F 68% 29.93 in 10.0 mi WNW 8.1 mph - N/A   Overcast
2:56 PM 37.2 °F 32.6 °F 27.5 °F 68% 29.94 in 10.0 mi WNW 5.8 mph - N/A   Overcast
3:17 PM 36.0 °F 32.1 °F 27.0 °F 70% 29.93 in 10.0 mi NW 4.6 mph - N/A   Overcast
3:37 PM 35.6 °F 29.2 °F 26.6 °F 70% 29.94 in 10.0 mi NW 8.1 mph - N/A   Overcast
3:56 PM 35.6 °F 30.7 °F 26.4 °F 69% 29.95 in 10.0 mi WNW 5.8 mph - N/A   Overcast
4:17 PM 35.1 °F 29.3 °F 27.0 °F 72% 29.95 in 10.0 mi NW 6.9 mph - N/A   Overcast
4:36 PM 34.7 °F 30.6 °F 26.4 °F 72% 29.96 in 10.0 mi NW 4.6 mph - N/A   Overcast
4:56 PM 34.7 °F 28.1 °F 26.1 °F 71% 29.97 in 10.0 mi NW 8.1 mph - N/A   Overcast
5:17 PM 34.7 °F 28.8 °F 25.5 °F 69% 29.97 in 10.0 mi WNW 6.9 mph - N/A   Overcast
5:36 PM 34.3 °F 29.2 °F 25.0 °F 69% 29.97 in 10.0 mi WNW 5.8 mph - N/A   Overcast
5:56 PM 34.0 °F 29.8 °F 25.2 °F 70% 29.97 in 10.0 mi NNW 4.6 mph - N/A   Overcast
6:16 PM 33.8 °F 30.8 °F 25.2 °F 71% 29.97 in 10.0 mi NNW 3.5 mph - N/A   Overcast
6:36 PM 33.8 °F 29.6 °F 25.5 °F 72% 29.97 in 10.0 mi NW 4.6 mph - N/A   Overcast
6:57 PM 33.3 °F 26.4 °F 25.3 °F 73% 29.97 in 10.0 mi NW 8.1 mph - N/A   Overcast
7:16 PM 32.9 °F 29.8 °F 25.2 °F 73% 29.97 in 10.0 mi NW 3.5 mph - N/A   Overcast
7:36 PM 32.9 °F 28.5 °F 25.3 °F 74% 29.98 in 10.0 mi NNW 4.6 mph - N/A   Overcast
7:56 PM 32.4 °F 27.9 °F 25.2 °F 75% 29.98 in 10.0 mi NNW 4.6 mph - N/A   Overcast
8:16 PM 32.0 °F 25.6 °F 24.8 °F 75% 29.98 in 10.0 mi North 6.9 mph - N/A   Overcast
8:37 PM 32.0 °F 24.8 °F 24.8 °F 75% 29.98 in 10.0 mi North 8.1 mph - N/A   Overcast
8:56 PM 31.8 °F 23.9 °F 24.8 °F 75% 29.98 in 10.0 mi North 9.2 mph - N/A   Overcast
9:16 PM 31.6 °F 25.1 °F 24.6 °F 75% 29.99 in 10.0 mi North 6.9 mph - N/A   Overcast
9:37 PM 31.5 °F 28.1 °F 23.9 °F 74% 29.99 in 10.0 mi NNW 3.5 mph - N/A   Overcast
9:56 PM 31.1 °F 27.7 °F 23.4 °F 73% 29.99 in 10.0 mi NNW 3.5 mph - N/A   Overcast
10:17 PM 31.1 °F 24.5 °F 23.9 °F 75% 29.98 in 10.0 mi North 6.9 mph - N/A   Overcast
10:37 PM 31.1 °F 25.4 °F 24.1 °F 75% 29.99 in 10.0 mi North 5.8 mph - N/A   Overcast
10:56 PM 30.7 °F 26.0 °F 23.2 °F 74% 29.99 in 10.0 mi NNW 4.6 mph - N/A   Overcast
11:17 PM 30.6 °F 24.7 °F 23.4 °F 75% 29.99 in 10.0 mi North 5.8 mph - N/A   Overcast
11:36 PM 30.2 °F 24.3 °F 23.4 °F 76% 29.99 in 10.0 mi North 5.8 mph - N/A   Overcast
11:56 PM 30.2 °F 24.3 °F 23.9 °F 77% 30.00 in 10.0 mi North 5.8 mph - N/A   Overcast